Location: Complexul Astronomic Baia Mare
(47.6577°N, 23.5639°E)
Time: 06:54:01
(UTC+03:00)

ISS - Pass Details

Date: 18 May 2017
Orbit: 402 x 408 km, 51.6° (Epoch: 29 May)

Event Time Altitude Azimuth Distance (km) Brightness Sun altitude
Rises 04:56:52 0° 288° (WNW) 2,329 -0.3 -7.4°
Reaches altitude 10° 04:59:00 10° 295° (WNW) 1,466 -1.2 -7.1°
Maximum altitude 05:02:10 44° 9° (N) 574 -2.6 -6.7°
Drops below altitude 10° 05:05:20 10° 84° (E) 1,460 0.0 -6.3°
Sets 05:07:28 0° 91° (E) 2,318 0.9 -6.0°
